Current Weather Conditions by Major Hwy


I-84 West to East [Columbia River Gorge] 800 PM PDT SUN OCT 13 2019 ELEVA CITY SKY/WX TMP DP RH WIND PRES REMARKS 10 ASTORIA, OR CLEAR 46 44 93 SW3 30.03R 20 KELSO MOCLDY 54 47 77 CALM 30.02R 40 PORTLAND, OR MOCLDY 56 46 69 NW5 30.00R 30 TROUTDALE, OR MOCLDY 56 45 66 CALM 29.99R 240 THE DALLES, OR CLEAR 57 40 52 W9 29.94R 620 HERMISTON, OR MOCLDY 52 33 48 SE3 29.89S 1,480 PENDLETON, OR CLOUDY 54 29 38 S3 29.90S 2,710 LA GRANDE CLOUDY 53 33 46 NW8 29.93R 3,370 BAKER CITY CLOUDY 45 31 58 S3 29.91R 2,190 ONTARIO PTCLDY 49 27 42 W3 29.89R
I-90 West to East 800 PM PDT SUN OCT 13 2019 ELEVA CITY SKY/WX TMP DP RH WIND PRES REMARKS 30 SEATAC AIRPORT MOCLDY 56 43 61 VRB3 30.00R 1,730 ELLENSBURG PTCLDY 49 36 61 NW10 29.92R 1,200 MOSES LAKE MOCLDY 49 35 58 SE3 29.90S 1,880 SPOKANE GEIGER CLOUDY 45 37 73 CALM 29.91R
I-82 North West to South East 800 PM PDT SUN OCT 13 2019 ELEVA CITY SKY/WX TMP DP RH WIND PRES REMARKS 1,730 ELLENSBURG PTCLDY 49 36 61 NW10 29.92R 1,050 YAKIMA TC MOCLDY 53 33 47 N3 29.91 720 360 PASCO MOCLDY 53 35 50 CALM 29.91R 620 HERMISTON, OR MOCLDY 52 33 48 SE3 29.89S
Hwy97 North to South 800 PM PDT SUN OCT 13 2019 ELEVA CITY SKY/WX TMP DP RH WIND PRES REMARKS 850 OMAK CLEAR 43 33 68 NW7 29.90R 630 WENATCHEE CLEAR 52 33 48 N7 29.90R 1,730 ELLENSBURG PTCLDY 49 36 61 NW10 29.92R 1,050 YAKIMA TC MOCLDY 53 33 47 N3 29.91 1,640 GOLDENDALE* CLEAR 57 40 52 W9 29.94R *From Dallesport Airport Elev 240 3,080 REDMOND CLEAR 49 40 71 N7 29.94R 4,100 KLAMATH FALLS CLEAR 52 25 35 N9 29.93R
I-5 North to South 800 PM PDT SUN OCT 13 2019 ELEVA CITY SKY/WX TMP DP RH WIND PRES REMARKS 150 BELLINGHAM PTCLDY 49 43 80 CALM 29.99S 100 ARLINGTON CLOUDY 51 44 77 CALM 30.01R 610 EVERETT MOCLDY 50 43 77 CALM 30.01R 30 SEATAC AIRPORT MOCLDY 56 43 61 VRB3 30.00R 200 OLYMPIA CLEAR 50 43 77 CALM 30.00R 20 KELSO MOCLDY 54 47 77 CALM 30.02R 100 VANCOUVER MOCLDY 57 46 66 NW3 29.99R 40 PORTLAND MOCLDY 56 46 69 NW5 30.00R 200 SALEM CLOUDY 55 43 63 NW8 29.99R 360 EUGENE CLOUDY 58 47 66 N5 29.99R 510 ROSEBURG CLEAR 58 46 64 N5 29.97R 1,300 MEDFORD CLEAR 57 40 52 NE7 29.91R
Data from:
http://www.wrh.noaa.gov/sew/get.php?pil=RWR&sid=OR&version=0&format=printer
http://www.wrh.noaa.gov/sew/get.php?pil=RWR&sid=WA&version=0&format=printer

Current Observations

Washington State Current Weather Observations   …  Oregon State Current Weather Observation



48 Hour Forecast

Seattle  …  Vancouver  …  Portland
————————————————————————————————————————
Bend  …  Spokane  …  Richland  …  Pendleton  …  Blue Mountains I-84  …  Yakima
————————————————————————————————————————
Goldendale, Washington Higher Elevations  …  Dallesport Airport - Goldendale  …  Bingen - White Salmon - Hood River  …  Index


Top of Page